Weather History for Alma, GA

Change the Weather History Date:

Sunday, April 13, 2014

  Actual Average Record
Temperature  
Mean Temperature 68 °F 66 °F  
Max Temperature 83 °F 78 °F 88 °F (1965)
Min Temperature 52 °F 53 °F 41 °F (1975)
Degree Days  
Heating Degree Days 0 2  
Month to date heating degree days 11 38  
Since 1 July heating degree days 1757 1627  
Cooling Degree Days 3 3  
Month to date cooling degree days 25 32  
Year to date cooling degree days 37 86  
Growing Degree Days 17 (Base 50)    
Moisture  
Dew Point 54 °F    
Average Humidity 65    
Maximum Humidity 93    
Minimum Humidity 36    
Precipitation  
Precipitation 0.00 in 0.10 in 2.30 in (2009)
Month to date precipitation 3.96 1.41  
Year to date precipitation 10.70 14.22  
Snow  
Snow 0.00 in 0.00 in 0.00 in ()
Month to date snowfall 0.0 0.0  
Since 1 July snowfall T 0.1  
Snow Depth 0.00 in    
Sea Level Pressure  
Sea Level Pressure 30.13 in    
Wind  
Wind Speed 5 mph (SE)    
Max Wind Speed 13 mph    
Max Gust Speed 20 mph    
Visibility 7 miles    
Events      
T = Trace of Precipitation, MM = Missing Value Source: NWS Daily Summary

Daily Weather History Graph

Daily Weather History Graph

Search for Another Location

Airport:

Trip Planner

Search our weather history database for the weather conditions in past years. The results will help you decide how hot, cold, wet, or windy it might be!

Date:

Astronomy

Apr. 13, 2014 Rise Set
Actual Time 7:04 AM EDT 7:57 PM EDT
Civil Twilight 6:39 AM EDT 8:22 PM EDT
Nautical Twilight 6:09 AM EDT 8:51 PM EDT
Astronomical Twilight 5:39 AM EDT 9:22 PM EDT
Moon 6:38 PM EDT (4/13) 5:55 AM EDT (4/13)
Length of Visible Light 13h 43m
Length of Day
12h 53m
Waxing Gibbous, 97% of the Moon is Illuminated
Apr 13
Waxing Gibbous
Apr 15
Full
Apr 22
Last Quarter
Apr 29
New
May 6
First Quarter

Hourly Weather History & Observations

Time (EDT) Temp. Heat Index Dew Point Humidity Pressure Visibility Wind Dir Wind Speed Gust Speed Precip Events Conditions
12:53 AM 62.1 °F - 53.1 °F 72% 30.17 in 10.0 mi SE 3.5 mph - N/A   Clear
1:53 AM 59.0 °F - 53.1 °F 81% 30.16 in 10.0 mi ESE 3.5 mph - N/A   Clear
2:53 AM 57.9 °F - 54.0 °F 87% 30.15 in 10.0 mi Calm Calm - N/A   Clear
3:53 AM 55.9 °F - 53.1 °F 90% 30.15 in 7.0 mi Calm Calm - N/A   Clear
4:53 AM 54.0 °F - 52.0 °F 93% 30.14 in 2.0 mi Calm Calm - N/A   Clear
5:05 AM 54.0 °F - 52.0 °F 93% 30.14 in 4.0 mi Calm Calm - N/A   Clear
5:35 AM 54.0 °F - 52.0 °F 93% 30.15 in 1.8 mi Calm Calm - N/A   Clear
5:45 AM 54.0 °F - 51.1 °F 90% 30.15 in 2.0 mi Calm Calm - N/A   Clear
5:53 AM 53.1 °F - 51.1 °F 93% 30.15 in 2.0 mi Calm Calm - N/A   Clear
6:07 AM 53.1 °F - 50.0 °F 89% 30.15 in 1.5 mi Calm Calm - N/A   Clear
6:17 AM 53.1 °F - 50.0 °F 89% 30.15 in 3.0 mi Calm Calm - N/A   Clear
6:53 AM 52.0 °F - 48.9 °F 89% 30.15 in 4.0 mi Calm Calm - N/A   Clear
7:13 AM 53.1 °F - 50.0 °F 89% 30.16 in 2.0 mi Calm Calm - N/A   Clear
7:24 AM 53.1 °F - 51.1 °F 93% 30.17 in 1.5 mi Calm Calm - N/A   Clear
7:37 AM 54.0 °F - 52.0 °F 93% 30.17 in 2.5 mi Calm Calm - N/A   Clear
7:45 AM 55.0 °F - 53.1 °F 93% 30.17 in 3.0 mi Calm Calm - N/A   Clear
7:53 AM 55.9 °F - 53.1 °F 90% 30.17 in 3.0 mi Calm Calm - N/A   Clear
8:53 AM 64.9 °F - 59.0 °F 81% 30.18 in 10.0 mi Calm Calm - N/A   Clear
9:53 AM 71.1 °F - 60.1 °F 68% 30.20 in 10.0 mi South 4.6 mph - N/A   Clear
10:53 AM 75.0 °F - 57.9 °F 55% 30.19 in 10.0 mi SE 6.9 mph - N/A   Clear
11:53 AM 77.0 °F - 55.9 °F 48% 30.18 in 10.0 mi Variable 5.8 mph - N/A   Clear
12:53 PM 79.0 °F - 55.0 °F 44% 30.15 in 10.0 mi ESE 8.1 mph 17.3 mph N/A   Partly Cloudy
1:53 PM 79.0 °F - 55.0 °F 44% 30.14 in 10.0 mi SE 6.9 mph - N/A   Scattered Clouds
2:53 PM 82.0 °F 81.4 °F 55.0 °F 39% 30.11 in 10.0 mi Variable 6.9 mph - N/A   Scattered Clouds
3:53 PM 82.9 °F 81.9 °F 54.0 °F 37% 30.07 in 10.0 mi SE 10.4 mph - N/A   Partly Cloudy
4:53 PM 81.0 °F - 52.0 °F 36% 30.06 in 10.0 mi SE 6.9 mph - N/A   Clear
5:53 PM 80.1 °F - 52.0 °F 38% 30.04 in 10.0 mi ESE 10.4 mph - N/A   Clear
6:53 PM 78.1 °F - 53.1 °F 42% 30.05 in 10.0 mi ESE 5.8 mph - N/A   Mostly Cloudy
8:53 PM 71.1 °F - 55.0 °F 57% 30.06 in 10.0 mi ESE 9.2 mph - N/A   Clear
9:53 PM 69.1 °F - 55.9 °F 63% 30.08 in 10.0 mi SE 5.8 mph - N/A   Clear
10:53 PM 66.0 °F - 57.0 °F 73% 30.07 in 10.0 mi ESE 5.8 mph - N/A   Clear
11:53 PM 64.9 °F - 57.0 °F 75% 30.07 in 10.0 mi ESE 3.5 mph - N/A   Clear